Regional Weather Roundup
Issued by NWS

Home | Current Version | Previous Version | Graphics & Text | Print | Product List | Glossary On
Versions: 1 2 3 4 5 6 7 8 9 10 11 12 13 14 15 16 17 18 19 20 21 22 23 24 25 26 27 28 29 30 31 32 33 34 35 36 37 38 39 40 41 42 43 44 45 46 47 48 49 50
000
ASUS43 KIND 232109
RWRIN

WEATHER ROUNDUP FOR INDIANA
NATIONAL WEATHER SERVICE INDIANAPOLIS IN
500 PM EDT WED MAY 23 2018

NOTE: "FAIR" INDICATES FEW OR NO CLOUDS BELOW 12,000 FEET WITH NO
SIGNIFICANT WEATHER AND/OR OBSTRUCTIONS TO VISIBILITY.

* - STATION DOES NOT REPORT WEATHER SUCH AS PRECIPITATION OR FOG.

+ - STATION NOT QUALITY CONTROLLED BY THE NATIONAL WEATHER SERVICE.
    USE DATA WITH CAUTION...ESPECIALLY DEWPOINT AND RELATIVE
    HUMIDITY OBSERVATIONS.

INZ001>003-010>013-019-020-232200-
NORTHWEST INDIANA

CITY           SKY/WX    TMP DP  RH WIND       PRES   REMARKS
GARY /AIRPORT/ MOSUNNY   68  57  68 NE7       30.18F
KNOX *+        FAIR      79  54  41 CALM      30.16F
LA PORTE +     FAIR      76  58  53 NW6       30.18F
MICHIGAN CITY+ FAIR      70  52  52 NW3       30.19F
MONTICELLO +   FAIR     N/A N/A N/A NE5       30.15F
RENSSELAER +   FAIR      81  34  18 N7        30.15F
VALPARAISO     FAIR      80  59  48 N6        30.17F

$$

LMZ046-743>745-232200-
SOUTHERN LAKE MICHIGAN

STATION/POSITION TIME  TEMP    WIND        PRES    WAVE
                       AIR SEA DIR/SP/G            HT
                 (UTC) (F)     (DEG/KT/KT) (MB)    (FT)
BURNS HARBOR     2040   60      70/  9/ 10 1022.7F
MICHIGAN CITY    2040   56      30/  6/  7   N/A
5NW MICH CITY    2100   55 57   60/  6/  6   N/A     0

$$

INZ004-005-014>016-021>024-232200-
NORTH CENTRAL INDIANA

CITY           SKY/WX    TMP DP  RH WIND       PRES   REMARKS
ELKHART        FAIR      84  48  28 CALM      30.17F
GOSHEN         FAIR      79  56  45 E7        30.17F
LOGANSPORT +   FAIR      79  50  36 NE6       30.17F
PERU/GRISSOM   FAIR      79  51  36 N7        30.16F
ROCHESTER +    FAIR      82  50  32 N3        30.17F
SOUTH BEND     FAIR      77  57  50 NW7       30.18S
WARSAW +       FAIR      77  54  44 CALM      30.17F

$$

INZ006>009-017-018-025>027-232200-
NORTHEAST INDIANA

CITY           SKY/WX    TMP DP  RH WIND       PRES   REMARKS
ANGOLA *+      FAIR      77  52  41 VRB3      30.17F
AUBURN +       FAIR      77  54  44 CALM      30.18F
FORT WAYNE     FAIR      79  54  41 NE3       30.18F
HUNTINGTON +   FAIR      77  53  42 CALM      30.17F
KENDALLVILLE + FAIR      77  50  38 CALM      30.18F

$$

INZ028-029-035-036-043>045-051>053-232200-
WEST CENTRAL INDIANA

CITY           SKY/WX    TMP DP  RH WIND       PRES   REMARKS
CRAWFORDSVL +  FAIR      79  53  40 N7        30.14F
GREENCASTLE +  FAIR      81  52  36 CALM      30.14F
LAFAYETTE      FAIR      79  54  41 NE8       30.15F
TERRE HAUTE    FAIR      86  55  34 N7        30.12F

$$

INZ030>032-037>040-046>048-054>057-064-065-232200-
CENTRAL INDIANA

CITY           SKY/WX    TMP DP  RH WIND       PRES   REMARKS
COLUMBUS       MOSUNNY   81  52  36 NE6       30.14F
FRANKFORT +    CLOUDY    83  54  36 E9        30.18F
GREENWOOD *+   FAIR      81  53  37 CALM      30.15F
INDIANAPOLIS   FAIR      82  53  36 NE10      30.14F
-EAGLE CREEK   FAIR      82  53  36 N7        30.14F
KOKOMO +       FAIR      79  53  40 NE7       30.17F
MARION +       FAIR      78  52  40 E5        30.17F
MT COMFORT *+  FAIR      81  59  47 N10       30.16S
SHELBYVILLE    FAIR      83  53  35 E10       30.14F
ZIONSVILLE +   FAIR      80  52  37 E8        30.17S

$$

INZ033-034-041-042-049-050-058-059-232200-
EAST CENTRAL INDIANA

CITY           SKY/WX    TMP DP  RH WIND       PRES   REMARKS
MUNCIE         FAIR      82  49  31 NE8       30.16F
RICHMOND +     FAIR      75  55  50 E10       30.18S

$$

INZ060-061-067>069-081>083-085>088-232200-
SOUTHWEST INDIANA

CITY           SKY/WX    TMP DP  RH WIND       PRES   REMARKS
EVANSVILLE     FAIR      85  61  44 MISG      30.08F
HUNTINGBURG +  FAIR      84  64  50 NE9G16    30.09F
WASHINGTON +   FAIR      84  56  37 E7        30.10F

$$

INZ062-063-066-070>080-084-089>092-232200-
SOUTH CENTRAL AND SOUTHEAST INDIANA

CITY           SKY/WX    TMP DP  RH WIND       PRES   REMARKS
BATESVILLE +   SUNNY     77  57  50 VRB5      30.15F
BEDFORD +      FAIR      82  55  39 NE8       30.11F
BLOOMINGTON    FAIR      82  58  43 N7        30.13F
FRENCH LICK *+ FAIR      82  43  24 NE9       30.11F
MADISON *+     FAIR      81  54  39 N7        30.13F
NORTH VERNON + FAIR      79  59  50 NE9       30.13F
SEYMOUR +      FAIR      82  57  42 NE5       30.12

$$




USA.gov is the U.S. government's official web portal to all federal, state and local government web resources and services.